K1YMI Weather Reports


time (UTC)temp
C
wind
direction
speed
KPH
gust
KPH
rain 1hr
cm
rain 24hr
cm
rain mn
cm
humidity
%
barometer
mb
20260510060515 -7 76 3.2 8.0 0.00 0.00 0.00
20260510055536 -7 48 4.8 8.0 0.00 0.00 0.00
20260510054536 -7 122 3.2 9.7 0.00 0.00 0.00
20260510053515 -7 64 3.2 9.7 0.00 0.00 0.00
20260510052515 -7 0.0 0.0 0.00 0.00 0.00
20260510051515 -7 0.0 0.0 0.00 0.00 0.00
20260510050515 -7 0.0 0.0 0.00 0.00 0.00
20260510045515 -7 0.0 0.0 0.00 0.00 0.00
20260510044535 -6 292 1.6 4.8 0.00 0.00 0.00
20260510043515 -6 271 1.6 8.0 0.00 0.00 0.00
20260510042515 -6 68 1.6 8.0 0.00 0.00 0.00
20260510041515 -6 80 1.6 4.8 0.00 0.00 0.00
20260510040535 -6 151 1.6 4.8 0.00 0.00 0.00
20260510035515 -6 74 3.2 11.3 0.00 0.00 0.00
20260510034515 -6 67 3.2 8.0 0.00 0.00 0.00
20260510033515 -6 64 3.2 8.0 0.00 0.00 0.00
20260510032515 -6 68 3.2 9.7 0.00 0.00 0.00
20260510031515 -6 65 3.2 8.0 0.00 0.00 0.00
20260510030515 -6 66 3.2 8.0 0.00 0.00 0.00
20260510025515 -6 53 4.8 9.7 0.00 0.00 0.00
20260510024515 -6 72 8.0 16.1 0.00 0.00 0.00
20260510023515 -6 69 6.4 16.1 0.00 0.00 0.00
20260510022516 -6 60 6.4 16.1 0.00 0.00 0.00
20260510021535 -6 60 6.4 11.3 0.00 0.00 0.00
20260510020516 -6 84 3.2 11.3 0.00 0.00 0.00
20260510015515 -6 88 1.6 8.0 0.00 0.00 0.00
20260510014515 -6 56 4.8 12.9 0.00 0.00 0.00
20260510012515 -6 72 4.8 12.9 0.00 0.00 0.00
20260510011515 -6 74 4.8 9.7 0.00 0.00 0.00
20260510010515 -6 96 3.2 8.0 0.00 0.00 0.00
20260510005515 -6 91 3.2 12.9 0.00 0.00 0.00
20260510004515 -7 63 3.2 8.0 0.00 0.00 0.00
20260510003515 -6 57 4.8 9.7 0.00 0.00 0.00
20260510002515 -6 64 4.8 14.5 0.00 0.00 0.00
20260510001515 -7 93 6.4 12.9 0.00 0.00 0.00
20260510000516 -6 60 6.4 16.1 0.00 0.00 0.00
20260509235516 -6 51 6.4 11.3 0.00 0.00 0.00
20260509234515 -6 77 4.8 14.5 0.00 0.00 0.00
20260509233535 -6 116 3.2 11.3 0.00 0.00 0.00
20260509232515 -6 73 4.8 11.3 0.00 0.00 0.00
20260509231515 -6 86 4.8 12.9 0.00 0.00 0.00
20260509230515 -6 83 3.2 9.7 0.00 0.00 0.00
20260509225515 -6 61 4.8 11.3 0.00 0.00 0.00
20260509224515 -6 64 4.8 11.3 0.00 0.00 0.00
20260509223535 -6 79 6.4 16.1 0.00 0.00 0.00
20260509222536 -6 67 6.4 12.9 0.00 0.00 0.00
20260509221515 -6 67 8.0 16.1 0.00 0.00 0.00
20260509220515 -6 88 6.4 12.9 0.00 0.00 0.00
20260509215535 -5 67 4.8 11.3 0.00 0.00 0.00
20260509214515 -5 71 4.8 11.3 0.00 0.00 0.00
20260509213535 -5 77 3.2 9.7 0.00 0.00 0.00
20260509212516 -5 69 6.4 14.5 0.00 0.00 0.00
20260509211515 -5 56 6.4 11.3 0.00 0.00 0.00
20260509210515 -5 69 6.4 17.7 0.00 0.00 0.00
20260509205515 -5 65 3.2 12.9 0.00 0.00 0.00
20260509204516 -7 65 6.4 14.5 0.00 0.00 0.00
20260509203515 -7 74 8.0 14.5 0.00 0.00 0.00
20260509202515 -7 60 8.0 17.7 0.00 0.00 0.00
20260509201516 -7 77 8.0 17.7 0.00 0.00 0.00
20260509200515 -7 80 8.0 19.3 0.00 0.00 0.00
20260509195515 -7 76 4.8 14.5 0.00 0.00 0.00
20260509194515 -7 88 6.4 12.9 0.00 0.00 0.00
20260509193515 -7 75 8.0 14.5 0.00 0.00 0.00
20260509192515 -7 76 4.8 12.9 0.00 0.00 0.00
20260509191515 -7 80 4.8 8.0 0.00 0.00 0.00
20260509190515 -7 69 4.8 11.3 0.00 0.00 0.00
20260509185515 -7 75 4.8 11.3 0.00 0.00 0.00
20260509184515 -7 83 4.8 14.5 0.00 0.00 0.00
20260509183515 -7 82 4.8 16.1 0.00 0.00 0.00
20260509182515 -7 59 6.4 14.5 0.00 0.00 0.00
20260509181516 -7 97 3.2 11.3 0.00 0.00 0.00
20260509180515 -7 74 4.8 11.3 0.00 0.00 0.00
20260509175536 -7 69 3.2 8.0 0.00 0.00 0.00
20260509174516 -7 82 6.4 16.1 0.00 0.00 0.00
20260509173515 -7 60 6.4 12.9 0.00 0.00 0.00
20260509172515 -7 95 4.8 12.9 0.00 0.00 0.00
20260509171535 -7 96 3.2 11.3 0.00 0.00 0.00 100 1005.1
20260509170516 -7 81 6.4 14.5 0.00 0.00 0.00 100 1005.2
20260509165535 -7 67 6.4 14.5 0.00 0.00 0.00 100 1005.2
20260509164515 -7 81 6.4 12.9 0.00 0.00 0.00 100 1005.4
20260509163515 -7 73 8.0 14.5 0.00 0.00 0.00 100 1005.5
20260509162515 -7 59 6.4 14.5 0.00 0.00 0.00 100 1005.5
20260509161515 -7 70 4.8 16.1 0.00 0.00 0.00 100 1005.7
20260509160515 -7 67 4.8 11.3 0.00 0.00 0.00 100 1005.9
20260509155515 -7 84 6.4 16.1 0.00 0.00 0.00 100 1006.1
20260509154515 -7 79 6.4 14.5 0.00 0.00 0.00 100 1006.3
20260509153515 -7 70 4.8 11.3 0.00 0.00 0.00 100 1006.3
20260509152515 -7 95 4.8 12.9 0.00 0.00 0.00 100 1006.3
20260509151535 -7 73 8.0 14.5 0.00 0.00 0.00 100 1006.4
20260509150515 -7 85 8.0 16.1 0.00 0.00 0.00 100 1006.4
20260509145556 -7 73 6.4 11.3 0.00 0.00 0.00 100 1006.5
20260509144536 -8 69 4.8 14.5 0.00 0.00 0.00 100 1006.5
20260509143515 -7 68 4.8 14.5 0.00 0.00 0.00 100 1006.6
20260509142515 -7 61 4.8 12.9 0.00 0.00 0.00 100 1006.7
20260509141515 -7 87 3.2 8.0 0.00 0.00 0.00 100 1006.7
20260509140515 -7 91 3.2 9.7 0.00 0.00 0.00 100 1006.7
20260509135515 -7 77 6.4 9.7 0.00 0.00 0.00 100 1006.8
20260509134515 -8 70 4.8 12.9 0.00 0.00 0.00 100 1006.8
20260509133515 -8 80 4.8 12.9 0.00 0.00 0.00 100 1006.7
20260509132515 -8 87 4.8 11.3 0.00 0.00 0.00 79 1006.6
20260509131515 -8 73 4.8 11.3 0.00 0.00 0.00 82 1006.7
20260509130515 -8 84 4.8 11.3 0.00 0.00 0.00 58 1006.8
20260509125535 -8 74 4.8 9.7 0.00 0.00 0.00 37 1006.8
20260509124515 -8 102 1.6 8.0 0.00 0.00 0.00 100 1007.0
20260509123515 -8 73 1.6 4.8 0.00 0.00 0.00 100 1007.1
20260509122516 -8 0.0 0.0 0.00 0.00 0.00 100 1007.2
20260509121515 -8 0.0 0.0 0.00 0.00 0.00 100 1007.1
20260509120556 -8 90 1.6 8.0 0.00 0.00 0.00 100 1007.0
20260509115515 -8 93 3.2 9.7 0.00 0.00 0.00 100 1007.0
20260509114515 -8 99 1.6 8.0 0.00 0.00 0.00 100 1007.1
20260509113515 -8 85 1.6 8.0 0.00 0.00 0.00 100 1007.2
20260509112535 -8 89 3.2 8.0 0.00 0.00 0.00 100 1007.2
20260509111515 -8 132 1.6 6.4 0.00 0.00 0.00 100 1007.1
20260509110515 -8 70 0.0 4.8 0.00 0.00 0.00 100 1006.9
20260509105515 -8 92 1.6 6.4 0.00 0.00 0.00 100 1007.0
20260509104515 -9 112 0.0 6.4 0.00 0.00 0.00 100 1007.0
20260509103515 -9 75 0.0 8.0 0.00 0.00 0.00 100 1006.8
20260509102515 -9 65 3.2 9.7 0.00 0.00 0.00 100 1006.8
20260509101515 -9 65 4.8 14.5 0.00 0.00 0.00 100 1006.4
20260509100515 -9 85 6.4 14.5 0.00 0.00 0.00 100 1006.4
20260509095515 -9 78 6.4 14.5 0.00 0.00 0.00 100 1006.2
20260509094515 -9 70 3.2 12.9 0.00 0.00 0.00 100 1006.3
20260509093515 -10 103 1.6 6.4 0.00 0.00 0.00 100 1006.5
20260509092515 -10 62 1.6 6.4 0.00 0.00 0.00 100 1006.5
20260509091515 -10 87 3.2 6.4 0.00 0.00 0.00 100 1006.4
20260509090516 -10 117 3.2 8.0 0.00 0.00 0.00 100 1006.3
20260509085516 -10 87 4.8 9.7 0.00 0.00 0.00 100 1006.4
20260509084556 -10 95 3.2 9.7 0.00 0.00 0.00 100 1006.4
20260509083516 -10 102 3.2 9.7 0.00 0.00 0.00 100 1006.6
20260509082516 -10 176 0.0 0.0 0.00 0.00 0.00 100 1006.6
20260509081536 -10 36 0.0 1.6 0.00 0.00 0.00 100 1006.5
20260509080536 -10 0.0 0.0 0.00 0.00 0.00 100 1006.6
20260509075516 -10 0.0 0.0 0.00 0.00 0.00 100 1006.5
20260509074516 -11 0.0 0.0 0.00 0.00 0.00 100 1006.4
20260509073515 -11 0.0 0.0 0.00 0.00 0.00 100 1006.4
20260509072536 -11 13 0.0 1.6 0.00 0.00 0.00 100 1006.5
20260509071515 -11 0.0 0.0 0.00 0.00 0.00 100 1006.5
20260509070515 -11 0.0 0.0 0.00 0.00 0.00 100 1006.5
20260509065535 -11 0.0 0.0 0.00 0.00 0.00 100 1006.6
20260509064516 -11 100 0.0 3.2 0.00 0.00 0.00 100 1006.7
20260509063515 -10 0.0 0.0 0.00 0.00 0.00 100 1006.9
20260509062515 -11 0.0 0.0 0.00 0.00 0.00 100 1007.0
20260509061515 -10 0.0 0.0 0.00 0.00 0.00 100 1007.1